Location: Addison Town Hall
(32.9525°N, 96.8158°W)
Time: 02:13:06
(UTC+00:00)

Cosmos 2219 - Pass Details

Date: 08 March 2021
Orbit: 835 x 858 km, 71.1° (Epoch: 10 April)

Event Time Altitude Azimuth Distance (km) Brightness Sun altitude
Rises 12:11:26 0° 210° (SSW) 3,395 6.0 -8.1°
Reaches altitude 10° 12:13:55 10° 214° (SW) 2,459 5.3 -7.6°
Maximum altitude 12:19:27 57° 292° (WNW) 989 3.3 -6.4°
Drops below altitude 10° 12:25:00 10° 11° (NNE) 2,458 5.8 -5.3°
Sets 12:27:30 0° 16° (NNE) 3,393 6.5 -4.7°
